This is the latest recevied weather packets stored in our database for station/object OE-11051. If no packets are shown the sender has not sent any weather packets the latest 10 day(s).
| Time | Temp. | Humidity | Pressure | Rain* | Wind** | Luminosity | Snow |
|---|---|---|---|---|---|---|---|
| 1787979307 | 13.33° C | 96% | 1017.8 hPa | 0 mm | - | 6 W/m² | - |
| 1787978480 | 13.33° C | 96% | 1017.8 hPa | 0 mm | - | 6 W/m² | - |
| 1787978106 | 13.33° C | 96% | 1017.7 hPa | 0 mm | - | 0 W/m² | - |
| 1787977507 | 13.33° C | 96% | 1017.5 hPa | 0 mm | - | 0 W/m² | - |
| 1787976680 | 13.33° C | 96% | 1017.5 hPa | 0 mm | - | 0 W/m² | - |
| 1787976307 | 13.33° C | 96% | 1017.6 hPa | 0 mm | - | 0 W/m² | - |
| 1787975707 | 13.89° C | 95% | 1017.6 hPa | 0 mm | - | 0 W/m² | - |
| 1787975107 | 13.89° C | 95% | 1017.5 hPa | 0 mm | - | 0 W/m² | - |
| 1787974506 | 13.89° C | 95% | 1017.6 hPa | 0 mm | - | 0 W/m² | - |
| 1787973907 | 14.44° C | 94% | 1017.6 hPa | 0 mm | - | 0 W/m² | - |
| 1787973079 | 14.44° C | 94% | 1017.7 hPa | 0 mm | - | 0 W/m² | - |
| 1787972707 | 14.44° C | 92% | 1017.5 hPa | 0 mm | - | 0 W/m² | - |
| 1787972107 | 15° C | 89% | 1017.5 hPa | 0 mm | - | 0 W/m² | - |
| 1787971280 | 15° C | 89% | 1017.8 hPa | 0 mm | - | 0 W/m² | - |
| 1787970907 | 15° C | 90% | 1017.8 hPa | 0 mm | - | 0 W/m² | - |
| 1787970307 | 15° C | 93% | 1017.8 hPa | 0 mm | - | 0 W/m² | - |
| 1787969479 | 15° C | 92% | 1017.8 hPa | 0 mm | - | 0 W/m² | - |
| 1787969106 | 15° C | 91% | 1017.8 hPa | 0 mm | - | 0 W/m² | - |
| 1787968507 | 15° C | 88% | 1017.6 hPa | 0 mm | - | 0 W/m² | - |
| 1787967679 | 15.56° C | 89% | 1017.8 hPa | 0 mm | - | 0 W/m² | - |
| 1787967307 | 15.56° C | 89% | 1018.1 hPa | 0 mm | - | 0 W/m² | - |
| 1787966707 | 15.56° C | 88% | 1018.1 hPa | 0 mm | - | 0 W/m² | - |
| 1787965880 | 15.56° C | 88% | 1018 hPa | 0 mm | - | 0 W/m² | - |
| 1787964907 | 15.56° C | 87% | 1017.8 hPa | 0 mm | - | 0 W/m² | - |
| 1787964080 | 16.11° C | 86% | 1017.4 hPa | 0 mm | - | 0 W/m² | - |
* Rain latest hour (hover to see other rain measurements)
** Current wind speed in m/s (hover to see current wind gust speed)